Year,Month,Day,Hour,Minute,Value (Times are PST for temperature in C)
2009,08,01,08,06,20.20
2009,08,01,08,07,20.20
2009,08,01,08,08,20.20
2009,08,01,08,09,20.20
2009,08,01,08,10,20.20
2009,08,01,08,11,20.30
2009,08,01,08,12,20.30
2009,08,01,08,13,20.30
2009,08,01,08,14,20.40
2009,08,01,08,15,20.50
2009,08,01,08,16,20.50
2009,08,01,08,17,20.60
2009,08,01,08,18,20.60
2009,08,01,08,19,20.70
2009,08,01,08,20,20.70
2009,08,01,08,21,20.80
2009,08,01,08,22,20.90
2009,08,01,08,23,21.00
2009,08,01,08,24,21.10
2009,08,01,08,25,21.20
2009,08,01,08,26,21.30
2009,08,01,08,27,21.30
2009,08,01,08,28,21.30
2009,08,01,08,29,21.30
2009,08,01,08,30,21.30
2009,08,01,08,31,21.40
2009,08,01,08,32,21.50
2009,08,01,08,33,21.60
2009,08,01,08,34,21.70
2009,08,01,08,35,21.80
2009,08,01,08,36,21.90
2009,08,01,08,37,21.90
2009,08,01,08,38,22.00
2009,08,01,08,39,22.10
2009,08,01,08,40,22.10
2009,08,01,08,41,22.20
2009,08,01,08,42,22.20
2009,08,01,08,43,22.30
2009,08,01,08,44,22.30
2009,08,01,08,45,22.30
2009,08,01,08,46,22.30
2009,08,01,08,47,22.30
2009,08,01,08,48,22.30
2009,08,01,08,49,22.30
2009,08,01,08,50,22.40
2009,08,01,08,51,22.40
2009,08,01,08,52,22.40
2009,08,01,08,53,22.50
2009,08,01,08,54,22.60
2009,08,01,08,55,22.60
2009,08,01,08,56,22.60
2009,08,01,08,57,22.70
2009,08,01,08,58,22.80
2009,08,01,08,59,22.90
2009,08,01,09,00,22.90
2009,08,01,09,01,22.90
2009,08,01,09,02,22.90
2009,08,01,09,03,22.90
2009,08,01,09,04,22.80
2009,08,01,09,05,22.80
2009,08,01,09,06,22.70
2009,08,01,09,07,22.60
2009,08,01,09,08,22.40
2009,08,01,09,09,22.40
2009,08,01,09,10,22.30
2009,08,01,09,11,22.30
2009,08,01,09,12,22.40
2009,08,01,09,13,22.40
2009,08,01,09,14,22.30
2009,08,01,09,15,22.40
2009,08,01,09,16,22.40
2009,08,01,09,17,22.40
2009,08,01,09,18,22.40
2009,08,01,09,19,22.30
2009,08,01,09,20,22.30
2009,08,01,09,21,22.30
2009,08,01,09,22,22.40
2009,08,01,09,23,22.50
2009,08,01,09,24,22.60
2009,08,01,09,25,22.70
2009,08,01,09,26,22.70
2009,08,01,09,27,22.80
2009,08,01,09,28,22.80
2009,08,01,09,29,22.80
2009,08,01,09,30,22.70
2009,08,01,09,31,22.50
2009,08,01,09,32,22.30
2009,08,01,09,33,22.20
2009,08,01,09,34,22.10
2009,08,01,09,35,22.10
2009,08,01,09,36,22.10
2009,08,01,09,37,22.20
2009,08,01,09,38,22.30
2009,08,01,09,39,22.40
2009,08,01,09,40,22.50
2009,08,01,09,41,22.40
2009,08,01,09,42,22.30
2009,08,01,09,43,22.30
2009,08,01,09,44,22.30
2009,08,01,09,45,22.40
2009,08,01,09,46,22.40
2009,08,01,09,47,22.40
2009,08,01,09,48,22.60
2009,08,01,09,49,22.70
2009,08,01,09,50,22.90
2009,08,01,09,51,22.90
2009,08,01,09,52,22.90
2009,08,01,09,53,22.90
2009,08,01,09,54,22.90
2009,08,01,09,55,22.90
2009,08,01,09,56,22.90
2009,08,01,09,57,22.90
2009,08,01,09,58,22.90
2009,08,01,09,59,23.10
2009,08,01,10,00,23.30
2009,08,01,10,01,23.40
2009,08,01,10,02,23.60
2009,08,01,10,03,23.60
2009,08,01,10,04,23.60
2009,08,01,10,05,23.70
2009,08,01,10,06,23.70
2009,08,01,10,07,23.60
2009,08,01,10,08,23.50
2009,08,01,10,09,23.40
2009,08,01,10,10,23.40
2009,08,01,10,11,23.50
2009,08,01,10,12,23.60
2009,08,01,10,13,23.70
2009,08,01,10,14,23.80
2009,08,01,10,15,23.80
2009,08,01,10,16,23.70
2009,08,01,10,17,23.70
2009,08,01,10,18,23.70
2009,08,01,10,19,23.60
2009,08,01,10,20,23.60
2009,08,01,10,21,23.70
2009,08,01,10,22,23.70
2009,08,01,10,23,23.70
2009,08,01,10,24,23.80
2009,08,01,10,25,23.90
2009,08,01,10,26,23.90
2009,08,01,10,27,23.90
2009,08,01,10,28,23.90
2009,08,01,10,29,23.90
2009,08,01,10,30,24.00
2009,08,01,10,31,24.10
2009,08,01,10,32,24.20
2009,08,01,10,33,24.20
2009,08,01,10,34,24.20
2009,08,01,10,35,24.10
2009,08,01,10,36,24.00
2009,08,01,10,37,23.90
2009,08,01,10,38,24.00
2009,08,01,10,39,24.10
2009,08,01,10,40,24.10
2009,08,01,10,41,24.10
2009,08,01,10,42,24.30
2009,08,01,10,43,24.30
2009,08,01,10,44,24.40
2009,08,01,10,45,24.40
2009,08,01,10,46,24.40
2009,08,01,10,47,24.40
2009,08,01,10,48,24.40
2009,08,01,10,49,24.40
2009,08,01,10,50,24.50
2009,08,01,10,51,24.50
2009,08,01,10,52,24.60
2009,08,01,10,53,24.70
2009,08,01,10,54,24.50
2009,08,01,10,55,24.50
2009,08,01,10,56,24.60
2009,08,01,10,57,24.60
2009,08,01,10,58,24.60
2009,08,01,10,59,24.60
2009,08,01,11,00,24.50
2009,08,01,11,01,24.40
2009,08,01,11,02,24.40
2009,08,01,11,03,24.40
2009,08,01,11,04,24.50
2009,08,01,11,05,24.60
2009,08,01,11,06,24.70
2009,08,01,11,07,24.90
2009,08,01,11,08,25.00
2009,08,01,11,09,24.90
2009,08,01,11,10,24.80
2009,08,01,11,11,24.70
2009,08,01,11,12,24.50
2009,08,01,11,13,24.60
2009,08,01,11,14,24.60
2009,08,01,11,15,24.50
2009,08,01,11,16,24.50
2009,08,01,11,17,24.50
2009,08,01,11,18,24.50
2009,08,01,11,19,24.50
2009,08,01,11,20,24.60
2009,08,01,11,21,24.60
2009,08,01,11,22,24.70
2009,08,01,11,23,24.70
2009,08,01,11,24,24.60
2009,08,01,11,25,24.60
2009,08,01,11,26,24.60
2009,08,01,11,27,24.50
2009,08,01,11,28,24.50
2009,08,01,11,29,24.50
2009,08,01,11,30,24.50
2009,08,01,11,31,24.40
2009,08,01,11,32,24.40
2009,08,01,11,33,24.40
2009,08,01,11,34,24.50
2009,08,01,11,35,24.50
2009,08,01,11,36,24.60
2009,08,01,11,37,24.70
2009,08,01,11,38,24.70
2009,08,01,11,39,24.70
2009,08,01,11,40,24.80
2009,08,01,11,41,24.80
2009,08,01,11,42,24.80
2009,08,01,11,43,24.80
2009,08,01,11,44,24.70
2009,08,01,11,45,24.60
2009,08,01,11,46,24.50
2009,08,01,11,47,24.50
2009,08,01,11,48,24.50
2009,08,01,11,49,24.60
2009,08,01,11,50,24.50
2009,08,01,11,51,24.30
2009,08,01,11,52,24.30
2009,08,01,11,53,24.40
2009,08,01,11,54,24.50
2009,08,01,11,55,24.80
2009,08,01,11,56,24.90
2009,08,01,11,57,25.10
2009,08,01,11,58,25.10
2009,08,01,11,59,25.00
2009,08,01,12,00,24.90
2009,08,01,12,01,24.80
2009,08,01,12,02,24.80
2009,08,01,12,03,24.70
2009,08,01,12,04,24.50
2009,08,01,12,05,24.50
2009,08,01,12,06,24.30
2009,08,01,12,07,24.30
2009,08,01,12,08,24.30
2009,08,01,12,09,24.10
2009,08,01,12,10,24.10
2009,08,01,12,11,24.10
2009,08,01,12,12,24.10
2009,08,01,12,13,24.40
2009,08,01,12,14,24.50
2009,08,01,12,15,24.80
2009,08,01,12,16,25.00
2009,08,01,12,17,25.10
2009,08,01,12,18,25.10
2009,08,01,12,19,25.00
2009,08,01,12,20,24.70
2009,08,01,12,21,24.60
2009,08,01,12,22,24.50
2009,08,01,12,23,24.50
2009,08,01,12,24,24.50
2009,08,01,12,25,24.50
2009,08,01,12,26,24.60
2009,08,01,12,27,24.80
2009,08,01,12,28,25.00
2009,08,01,12,29,25.10
2009,08,01,12,30,25.00
2009,08,01,12,31,24.90
2009,08,01,12,32,24.70
2009,08,01,12,33,24.80
2009,08,01,12,34,25.00
2009,08,01,12,35,25.00
2009,08,01,12,36,25.00
2009,08,01,12,37,25.00
2009,08,01,12,38,25.10
2009,08,01,12,39,25.20
2009,08,01,12,40,25.30
2009,08,01,12,41,25.40
2009,08,01,12,42,25.50
2009,08,01,12,43,25.40
2009,08,01,12,44,25.30
2009,08,01,12,45,25.20
2009,08,01,12,46,25.20
2009,08,01,12,47,25.40
2009,08,01,12,48,25.50
2009,08,01,12,49,25.70
2009,08,01,12,50,25.90
2009,08,01,12,51,26.00
2009,08,01,12,52,26.00
2009,08,01,12,53,25.80
2009,08,01,12,54,25.70
2009,08,01,12,55,25.50
2009,08,01,12,56,25.40
2009,08,01,12,57,25.40
2009,08,01,12,58,25.60
2009,08,01,12,59,25.80
2009,08,01,13,00,25.90
2009,08,01,13,01,26.10
2009,08,01,13,02,26.20
2009,08,01,13,03,26.40
2009,08,01,13,04,26.50
2009,08,01,13,05,26.50
2009,08,01,13,06,26.40
2009,08,01,13,07,26.20
2009,08,01,13,08,26.10
2009,08,01,13,09,26.00
2009,08,01,13,10,25.90
2009,08,01,13,11,25.90
2009,08,01,13,12,26.00
2009,08,01,13,13,26.10
2009,08,01,13,14,26.20
2009,08,01,13,15,26.20
2009,08,01,13,16,26.30
2009,08,01,13,17,26.50
2009,08,01,13,18,26.60
2009,08,01,13,19,26.80
2009,08,01,13,20,26.90
2009,08,01,13,21,27.10
2009,08,01,13,22,27.20
2009,08,01,13,23,27.30
2009,08,01,13,24,27.40
2009,08,01,13,25,27.40
2009,08,01,13,26,27.60
2009,08,01,13,27,27.50
2009,08,01,13,28,27.50
2009,08,01,13,29,27.30
2009,08,01,13,30,27.20
2009,08,01,13,31,27.00
2009,08,01,13,32,26.80
2009,08,01,13,33,26.50
2009,08,01,13,34,26.40
2009,08,01,13,35,26.20
2009,08,01,13,36,26.20
2009,08,01,13,37,26.20
2009,08,01,13,38,26.30
2009,08,01,13,39,26.50
2009,08,01,13,40,26.80
2009,08,01,13,41,26.90
2009,08,01,13,42,27.00
2009,08,01,13,43,27.10
2009,08,01,13,44,27.10
2009,08,01,13,45,27.10
2009,08,01,13,46,27.00
2009,08,01,13,47,26.80
2009,08,01,13,48,26.60
2009,08,01,13,49,26.60
2009,08,01,13,50,26.70
2009,08,01,13,51,26.90
2009,08,01,13,52,27.00
2009,08,01,13,53,27.00
2009,08,01,13,54,27.00
2009,08,01,13,55,27.10
2009,08,01,13,56,27.20
2009,08,01,13,57,27.30
2009,08,01,13,58,27.40
2009,08,01,13,59,27.60
2009,08,01,14,00,27.80
2009,08,01,14,01,28.00
2009,08,01,14,02,28.10
2009,08,01,14,03,28.00
2009,08,01,14,04,27.90
2009,08,01,14,05,27.90
2009,08,01,14,06,27.70
2009,08,01,14,07,27.60
2009,08,01,14,08,27.70
2009,08,01,14,09,27.60
2009,08,01,14,10,27.60
2009,08,01,14,11,27.60
2009,08,01,14,12,27.70
2009,08,01,14,13,27.70
2009,08,01,14,14,27.60
2009,08,01,14,15,27.70
2009,08,01,14,16,27.70
2009,08,01,14,17,27.80
2009,08,01,14,18,27.60
2009,08,01,14,19,27.40
2009,08,01,14,20,27.30
2009,08,01,14,21,27.30
2009,08,01,14,22,27.30
2009,08,01,14,23,27.30
2009,08,01,14,24,27.30
2009,08,01,14,25,27.30
2009,08,01,14,26,27.40
2009,08,01,14,27,27.40
2009,08,01,14,28,27.40
2009,08,01,14,29,27.50
2009,08,01,14,30,27.40
2009,08,01,14,31,27.40
2009,08,01,14,32,27.50
2009,08,01,14,33,27.60
2009,08,01,14,34,27.80
2009,08,01,14,35,27.80
2009,08,01,14,36,27.70
2009,08,01,14,37,27.60
2009,08,01,14,38,27.70
2009,08,01,14,39,27.70
2009,08,01,14,40,27.70
2009,08,01,14,41,27.60
2009,08,01,14,42,27.60
2009,08,01,14,43,27.70
2009,08,01,14,44,27.90
2009,08,01,14,45,27.90
2009,08,01,14,46,27.80
2009,08,01,14,47,27.70
2009,08,01,14,48,27.60
2009,08,01,14,49,27.50
2009,08,01,14,50,27.40
2009,08,01,14,51,27.40
2009,08,01,14,52,27.50
2009,08,01,14,53,27.80
2009,08,01,14,54,27.90
2009,08,01,14,55,27.90
2009,08,01,14,56,28.00
2009,08,01,14,57,28.00
2009,08,01,14,58,27.90
2009,08,01,14,59,27.90
2009,08,01,15,00,28.00
2009,08,01,15,01,28.00
2009,08,01,15,02,28.00
2009,08,01,15,03,28.10
2009,08,01,15,04,28.10
2009,08,01,15,05,28.30
2009,08,01,15,06,28.20
2009,08,01,15,07,28.30
2009,08,01,15,08,28.20
2009,08,01,15,09,28.10
2009,08,01,15,10,28.20
2009,08,01,15,11,28.20
2009,08,01,15,12,28.30
2009,08,01,15,13,28.30
2009,08,01,15,14,28.30
2009,08,01,15,15,28.30
2009,08,01,15,16,28.30
2009,08,01,15,17,28.40
2009,08,01,15,18,28.60
2009,08,01,15,19,28.70
2009,08,01,15,20,28.80
2009,08,01,15,21,28.80
2009,08,01,15,22,28.80
2009,08,01,15,23,28.80
2009,08,01,15,24,28.80
2009,08,01,15,25,28.90
2009,08,01,15,26,28.90
2009,08,01,15,27,28.80
2009,08,01,15,28,28.80
2009,08,01,15,29,28.90
2009,08,01,15,30,28.90
2009,08,01,15,31,28.90
2009,08,01,15,32,28.80
2009,08,01,15,33,28.70
2009,08,01,15,34,28.50
2009,08,01,15,35,28.40
2009,08,01,15,36,28.30
2009,08,01,15,37,28.20
2009,08,01,15,38,28.40
2009,08,01,15,39,28.60
2009,08,01,15,40,28.80
2009,08,01,15,41,28.90
2009,08,01,15,42,29.20
2009,08,01,15,43,29.30
2009,08,01,15,44,29.50
2009,08,01,15,45,29.70
2009,08,01,15,46,29.60
2009,08,01,15,47,29.70
2009,08,01,15,48,29.80
2009,08,01,15,49,29.80
2009,08,01,15,50,29.80
2009,08,01,15,51,29.90
2009,08,01,15,52,29.80
2009,08,01,15,53,29.70
2009,08,01,15,54,29.70
2009,08,01,15,55,29.70
2009,08,01,15,56,29.70
2009,08,01,15,57,29.80
2009,08,01,15,58,29.80
2009,08,01,15,59,29.80
2009,08,01,16,00,29.80
2009,08,01,16,01,29.80
2009,08,01,16,02,30.00
2009,08,01,16,03,30.10
2009,08,01,16,04,30.10
2009,08,01,16,05,30.00
2009,08,01,16,06,29.90
2009,08,01,16,07,29.90
2009,08,01,16,08,29.90
2009,08,01,16,09,29.90
2009,08,01,16,10,29.90
2009,08,01,16,11,29.90
2009,08,01,16,12,29.90
2009,08,01,16,13,29.80
2009,08,01,16,14,29.70
2009,08,01,16,15,29.60
2009,08,01,16,16,29.70
2009,08,01,16,17,29.70
2009,08,01,16,18,29.80
2009,08,01,16,19,29.70
2009,08,01,16,20,29.70
2009,08,01,16,21,29.70
2009,08,01,16,22,29.70
2009,08,01,16,23,29.60
2009,08,01,16,24,29.50
2009,08,01,16,25,29.50
2009,08,01,16,26,29.50
2009,08,01,16,27,29.50
2009,08,01,16,28,29.50
2009,08,01,16,29,29.40
2009,08,01,16,30,29.30
2009,08,01,16,31,29.30
2009,08,01,16,32,29.40
2009,08,01,16,33,29.40
2009,08,01,16,34,29.30
2009,08,01,16,35,29.30
2009,08,01,16,36,29.40
2009,08,01,16,37,29.40
2009,08,01,16,38,29.50
2009,08,01,16,39,29.60
2009,08,01,16,40,29.60
2009,08,01,16,41,29.60
2009,08,01,16,42,29.60
2009,08,01,16,43,29.70
2009,08,01,16,44,29.70
2009,08,01,16,45,29.70
2009,08,01,16,46,29.70
2009,08,01,16,47,29.70
2009,08,01,16,48,29.70
2009,08,01,16,49,29.70
2009,08,01,16,50,29.70
2009,08,01,16,51,29.70
2009,08,01,16,52,29.70
2009,08,01,16,53,29.60
2009,08,01,16,54,29.40
2009,08,01,16,55,29.40
2009,08,01,16,56,29.40
2009,08,01,16,57,29.30
2009,08,01,16,58,29.40
2009,08,01,16,59,29.40
2009,08,01,17,00,29.40
2009,08,01,17,01,29.40
2009,08,01,17,02,29.30
2009,08,01,17,03,29.40
2009,08,01,17,04,29.40
2009,08,01,17,05,29.40
2009,08,01,17,06,29.50
2009,08,01,17,07,29.60
2009,08,01,17,08,29.60
2009,08,01,17,09,29.70
2009,08,01,17,10,29.60
2009,08,01,17,11,29.50
2009,08,01,17,12,29.60
2009,08,01,17,13,29.70
2009,08,01,17,14,29.80
2009,08,01,17,15,29.80
2009,08,01,17,16,29.70
2009,08,01,17,17,29.70
2009,08,01,17,18,29.70
2009,08,01,17,19,29.80
2009,08,01,17,20,30.00
2009,08,01,17,21,30.10
2009,08,01,17,22,30.20
2009,08,01,17,23,30.30
2009,08,01,17,24,30.30
2009,08,01,17,25,30.30
2009,08,01,17,26,30.30
2009,08,01,17,27,30.30
2009,08,01,17,28,30.20
2009,08,01,17,29,30.20
2009,08,01,17,30,30.10
2009,08,01,17,31,30.00
2009,08,01,17,32,29.90
2009,08,01,17,33,29.90
2009,08,01,17,34,29.90
2009,08,01,17,35,30.00
2009,08,01,17,36,30.10
2009,08,01,17,37,30.20
2009,08,01,17,38,30.20
2009,08,01,17,39,30.20
2009,08,01,17,40,30.20
2009,08,01,17,41,30.10
2009,08,01,17,42,30.10
2009,08,01,17,43,30.00
2009,08,01,17,44,29.90
2009,08,01,17,45,29.90
2009,08,01,17,46,29.90
2009,08,01,17,47,29.90
2009,08,01,17,48,29.90
2009,08,01,17,49,29.90
2009,08,01,17,50,29.90
2009,08,01,17,51,29.90
2009,08,01,17,52,30.00
2009,08,01,17,53,30.10
2009,08,01,17,54,30.10
2009,08,01,17,55,30.10
2009,08,01,17,56,30.10
2009,08,01,17,57,30.10
2009,08,01,17,58,30.10
2009,08,01,17,59,30.10
2009,08,01,18,00,30.20
2009,08,01,18,01,30.10
2009,08,01,18,02,30.10
2009,08,01,18,03,30.00
2009,08,01,18,04,29.90
2009,08,01,18,05,29.90
2009,08,01,18,06,29.90
2009,08,01,18,07,29.90
2009,08,01,18,08,29.90
2009,08,01,18,09,29.90
2009,08,01,18,10,29.90
2009,08,01,18,11,29.90
2009,08,01,18,12,30.10
2009,08,01,18,13,30.10
2009,08,01,18,14,30.20
2009,08,01,18,15,30.30
2009,08,01,18,16,30.30
2009,08,01,18,17,30.20
2009,08,01,18,18,30.20
2009,08,01,18,19,30.20
2009,08,01,18,20,30.20
2009,08,01,18,21,30.20
2009,08,01,18,22,30.20
2009,08,01,18,23,30.10
2009,08,01,18,24,30.10
2009,08,01,18,25,30.00
2009,08,01,18,26,30.10
2009,08,01,18,27,30.10
2009,08,01,18,28,30.10
2009,08,01,18,29,30.00
2009,08,01,18,30,29.90
2009,08,01,18,31,29.80
2009,08,01,18,32,29.80
2009,08,01,18,33,29.90
2009,08,01,18,34,29.80
2009,08,01,18,35,29.80
2009,08,01,18,36,29.80
2009,08,01,18,37,29.90
2009,08,01,18,38,29.90
2009,08,01,18,39,29.90
2009,08,01,18,40,29.90
2009,08,01,18,41,29.90
2009,08,01,18,42,29.90
2009,08,01,18,43,29.90
2009,08,01,18,44,29.90
2009,08,01,18,45,30.00
2009,08,01,18,46,30.10
2009,08,01,18,47,30.10
2009,08,01,18,48,30.10
2009,08,01,18,49,30.10
2009,08,01,18,50,30.00
2009,08,01,18,51,29.90
2009,08,01,18,52,29.80
2009,08,01,18,53,29.80
2009,08,01,18,54,29.80
2009,08,01,18,55,29.80
2009,08,01,18,56,29.80
2009,08,01,18,57,29.80
2009,08,01,18,58,29.80
2009,08,01,18,59,29.80
2009,08,01,19,00,29.80
2009,08,01,19,01,29.80
2009,08,01,19,02,29.80
2009,08,01,19,03,29.80
